Find Starlink 2607

NORAD ID: 48391 Int'l Des: 2021-038 Owner: SPXS Country: US Constellation: starlink operational
LEOCIRCULAR

リアルタイム位置

3D地球を読み込み中...

Starlink 2607について

説明を読み込み中...

次回通過

Passes for default location (London). Set your location on the main map for personalized predictions.

高度履歴

Loading altitude history...

軌道要素

1 48391U 21038AQ 26107.28666304 .00070385 00000-0 23255-2 0 9992
2 48391 53.1599 153.6632 0001713 107.3015 252.8173 15.30760107274566
Epoch: Apr 17, 2026 • Age: 11 hours

現在のステータス

高度 481.3 km
速度 7.62 km/s
衛星直下点 -24.52°S, 20.13°E
打ち上げ日 May 4, 2021
運用期間 4.9 years
タイプ internet

技術仕様

分類 Payload
質量 260.00 kg
乾燥質量 248.00 kg
総質量 260.00 kg
長さ 0.20 m
直径 2.80 m
スパン 9.00 m
形状 Box + pan
製造者 SPXS
バスタイプ Starlink
フェーズステータス In Orbit
所有者/国 SPXS/US

Most Searched